Tracking 31032 objects as of 14-Jul-2025
HD Live streaming from Space Station
objects crossing your sky now

COSMOS 1934 DEB

Track COSMOS 1934 DEB now!
10-day predictions


NORAD ID: 21912
Int'l Code: 1988-023C
Perigee: 923.7 km
Apogee: 981.4 km
Inclination: 83.0 °
Period: 104.0 minutes
Semi major axis: 7323 km
RCS: 0.1428 m2 (medium)
Launch date: March 22, 1988
Source: Commonwealth of Independent States (former USSR) (CIS)
Launch site: PLESETSK MISSILE AND SPACE COMPLEX (PKMTR)

Note: This is SATELLITE DEBRIS
Your satellite tracking list
Your tracking list is empty




NASA's NSSDC Master Catalog

Two Line Element Set (TLE):
1 21912U 88023C   25194.63190117  .00000333  00000-0  27743-3 0  9990
2 21912  82.9573 338.8253 0039425  96.7191 275.5890 13.85227728754859
Source of the keplerian elements: AFSPC